Weather History for Granada, Spain

Change the Weather History Date:

Monday, February 17, 2014

  Actual Average Record
Temperature  
Mean Temperature 44 °F -  
Max Temperature 55 °F 61 °F 75 °F (1998)
Min Temperature 34 °F 36 °F 21 °F (2005)
Degree Days  
Heating Degree Days 20    
Moisture  
Dew Point 41 °F    
Average Humidity 83    
Maximum Humidity 100    
Minimum Humidity 49    
Precipitation  
Precipitation 0.00 in - - ()
Sea Level Pressure  
Sea Level Pressure 29.89 in    
Wind  
Wind Speed 1 mph ()    
Max Wind Speed 6 mph    
Max Gust Speed -    
Visibility 8.7 miles    
Events      
Averages and records for this station are not official NWS values.
T = Trace of Precipitation, MM = Missing Value Source: Averaged Metar Reports

Daily Weather History Graph

Daily Weather History Graph

Search for Another Location

Airport:

Trip Planner

Search our weather history database for the weather conditions in past years. The results will help you decide how hot, cold, wet, or windy it might be!

Date:

Astronomy

Feb. 17, 2014 Rise Set
Actual Time 8:01 AM CET 6:56 PM CET
Civil Twilight 7:35 AM CET 7:23 PM CET
Nautical Twilight 7:04 AM CET 7:53 PM CET
Astronomical Twilight 6:34 AM CET 8:24 PM CET
Moon 9:32 PM CET 8:59 AM CET
Length of Visible Light 11h 48m
Length of Day
10h 55m
Waning Gibbous, 94% of the Moon is Illuminated
Feb 17
Waning Gibbous
Feb 22
Last Quarter
Mar 1
New
Mar 8
First Quarter
Mar 16
Full

Hourly Weather History & Observations

Time (CET) Temp. Dew Point Humidity Pressure Visibility Wind Dir Wind Speed Gust Speed Precip Events Conditions
12:00 AM 40 °F 37 °F 87% 30.05 in 19 mi WSW 2.3 mph - -  
1:00 AM 38 °F 37 °F 94% 30.05 in 19 mi SW 2.3 mph - -  
2:00 AM 39 °F 38 °F 93% 30.03 in 19 mi Calm Calm - -  
3:00 AM 38 °F 37 °F 94% 30.03 in 16 mi Calm Calm - -  
4:00 AM 37 °F 36 °F 93% 30.02 in 13 mi Calm Calm - -  
5:00 AM 37 °F 36 °F 92% 30.00 in 11 mi Calm Calm - -  
6:00 AM 36 °F 35 °F 95% 29.99 in 7 mi Calm Calm - -  
6:00 AM 37.4 °F 35.6 °F 93% 29.92 in 6.2 mi Calm Calm - N/A   Partly Cloudy
6:30 AM 35.6 °F 35.6 °F 100% 29.89 in 6.2 mi Calm Calm - N/A   Partly Cloudy
7:00 AM 35 °F 34 °F 95% 29.98 in 9 mi Calm Calm - -   Scattered Clouds
7:00 AM 35.6 °F 35.6 °F 100% 29.89 in 6.2 mi Calm Calm - N/A   Partly Cloudy
7:30 AM 35.6 °F 35.6 °F 100% 29.89 in 6.2 mi Variable 1.2 mph - N/A   Partly Cloudy
8:00 AM 34 °F 33 °F 97% 29.98 in 6 mi Calm Calm - -   Scattered Clouds
8:00 AM 35.6 °F 35.6 °F 100% 29.89 in 6.2 mi Calm Calm - N/A   Partly Cloudy
8:30 AM 35.6 °F 35.6 °F 100% 29.92 in - Calm Calm - N/A   Clear
9:00 AM 37 °F 36 °F 92% 29.99 in 7 mi Calm Calm - -  
9:00 AM 37.4 °F 37.4 °F 100% 29.92 in 6.2 mi Calm Calm - N/A   Partly Cloudy
9:30 AM 39.2 °F 37.4 °F 93% 29.92 in 6.2 mi Calm Calm - N/A   Partly Cloudy
10:00 AM 40 °F 38 °F 88% 29.98 in 12 mi NNW 1.2 mph - -   Overcast
10:00 AM 39.2 °F 37.4 °F 93% 29.92 in 6.2 mi Variable 1.2 mph - N/A   Scattered Clouds
10:30 AM 41.0 °F 39.2 °F 93% 29.92 in 6.2 mi Calm Calm - N/A   Partly Cloudy
11:00 AM 46 °F 40 °F 74% 29.94 in 13 mi Calm Calm - -  
11:00 AM 42.8 °F 41.0 °F 93% 29.92 in 6.2 mi Calm Calm - N/A   Partly Cloudy
11:30 AM 46.4 °F 42.8 °F 87% 29.92 in 6.2 mi Calm Calm - N/A   Partly Cloudy
12:00 PM 50 °F 42 °F 67% 29.91 in 9 mi NNW 2.3 mph - -  
12:00 PM 48.2 °F 41.0 °F 76% 29.89 in 6.2 mi Variable 1.2 mph - N/A   Scattered Clouds
12:30 PM 50.0 °F 42.8 °F 76% 29.89 in 6.2 mi Calm Calm - N/A   Scattered Clouds
1:00 PM 52 °F 42 °F 60% 29.88 in 9 mi West 2.3 mph - -   Overcast
1:00 PM 50.0 °F 42.8 °F 76% 29.89 in 6.2 mi Variable 1.2 mph - N/A   Scattered Clouds
1:30 PM 53.6 °F 42.8 °F 67% 29.86 in 6.2 mi Variable 1.2 mph - N/A   Scattered Clouds
2:00 PM 54 °F 42 °F 53% 29.85 in 16 mi WNW 2.3 mph - -   Overcast
2:00 PM 53.6 °F 42.8 °F 67% 29.86 in 6.2 mi Variable 1.2 mph - N/A   Scattered Clouds
2:30 PM 53.6 °F 42.8 °F 67% 29.83 in 6.2 mi Calm Calm - N/A   Scattered Clouds
3:00 PM 55 °F 41 °F 49% 29.83 in 19 mi Calm Calm - -  
3:00 PM 53.6 °F 42.8 °F 67% 29.83 in 6.2 mi Calm Calm - N/A   Scattered Clouds
3:30 PM 53.6 °F 42.8 °F 67% 29.83 in 6.2 mi Variable 1.2 mph - N/A   Scattered Clouds
4:00 PM 54 °F 42 °F 53% 29.81 in 19 mi West 2.3 mph - -   Overcast
4:00 PM 53.6 °F 42.8 °F 67% 29.80 in 6.2 mi Variable 2.3 mph - N/A   Scattered Clouds
4:30 PM 53.6 °F 42.8 °F 67% 29.80 in 6.2 mi Variable 2.3 mph - N/A   Scattered Clouds
5:00 PM 54 °F 44 °F 59% 29.81 in 14 mi WSW 5.8 mph - -  
5:00 PM 53.6 °F 44.6 °F 72% 29.83 in 6.2 mi WSW 5.8 mph - N/A   Scattered Clouds
5:30 PM 51.8 °F 44.6 °F 76% 29.80 in 6.2 mi Variable 2.3 mph - N/A   Scattered Clouds
6:00 PM 52 °F 45 °F 69% 29.82 in 17 mi WSW 2.3 mph - -  
6:00 PM 51.8 °F 46.4 °F 82% 29.83 in 6.2 mi Variable 2.3 mph - N/A   Scattered Clouds
6:30 PM 51.8 °F 44.6 °F 76% 29.83 in 6.2 mi Variable 2.3 mph - N/A   Scattered Clouds
7:00 PM 50 °F 45 °F 75% 29.84 in 11 mi WNW 2.3 mph - -   Overcast
7:00 PM 50.0 °F 44.6 °F 82% 29.83 in 6.2 mi Variable 2.3 mph - N/A   Scattered Clouds
8:00 PM 49 °F 45 °F 79% 29.86 in 9 mi SSW 1.2 mph - -  
8:00 PM 50.0 °F 46.4 °F 87% 29.86 in 6.2 mi Variable 1.2 mph - N/A   Scattered Clouds
8:30 PM 50.0 °F 46.4 °F 87% 29.86 in 6.2 mi Calm Calm - N/A   Scattered Clouds
9:00 PM 48 °F 45 °F 87% 29.88 in 7 mi Calm Calm - -  
9:00 PM 48.2 °F 46.4 °F 93% 29.86 in 6.2 mi Calm Calm - N/A   Scattered Clouds
9:30 PM 48.2 °F 46.4 °F 93% 29.86 in 6.2 mi NNW 3.5 mph - N/A   Scattered Clouds
10:00 PM 48 °F 46 °F 88% 29.89 in 6 mi SSE 3.5 mph - -   Overcast
10:00 PM 48.2 °F 46.4 °F 93% 29.86 in 6.2 mi Variable 2.3 mph - N/A   Scattered Clouds
10:30 PM 48.2 °F 46.4 °F 93% 29.86 in 6.2 mi Variable 1.2 mph - N/A   Scattered Clouds
11:00 PM 47 °F 45 °F 89% 29.90 in 7 mi SE 2.3 mph - -  
11:00 PM 46.4 °F 44.6 °F 93% 29.86 in 6.2 mi Variable 1.2 mph - N/A   Scattered Clouds